User: anonymous   Login
Location: Unspecified
(0.0000°N, 0.0000°E)
Time: 15:40:54
(UTC+00:00)
Language:

Picosat 3 - Orbit

View from above orbital plane
View from above orbital plane
View from above satellite
View from above satellite

Ground track
Ground track

The orbit data is extracted from the following two-line orbital elements,

1 26091U 00004J   18109.41302827  .00000285  00000-0  91708-4 0  9992
2 26091 100.2099 267.5261 0028230 290.6274  69.1886 14.48837960957970
Epoch (UTC): 19 April 2018 09:54:45
Eccentricity: 0.0028230
inclination: 100.2099°
perigee height: 709 km
apogee height: 749 km
right ascension of ascending node: 267.5261°
argument of perigee: 290.6274°
revolutions per day: 14.48837960
mean anomaly at epoch: 69.1886°
orbit number at epoch: 95797

The dashed part of the orbit path shows where the satellite is in the earth's shadow,  

DLR